Date String (YYYY-MM-DD hh:mm:ss) UTC,Instrument flags,absolute air pressure of the measurement (hPa),sample flow rate (lpm),inlet stack bypass flow (lpm),air temperature of the measurement (°C),ambient temperature measured by the external sensor (°C),aerosol sample conditioner tube jacket temperature (°C),OPC LED temperature (°C),internal box temperature (°C),relative humidity of the measurement (%),span deviation,mass concentration of particles derived from Lorenz-Mie calculation of OPC scattering (μg/m³),mass concentration of particles derived from Lorenz-Mie calculation of OPC scattering (μg/m³),mass concentration of particles derived from Lorenz-Mie calculation of OPC scattering (μg/m³)
DateTimeUTC,F1_M11,P_M11,Q1_M11,Q2_M11,T1_M11,T2_M11,T3_M11,T4_M11,T5_M11,U1_M11,ZSPAN_M11,X2_M11,X0_M11,X1_M11
2023-06-03 00:00:00,SystemResetWarning,0826.9,5.00,000.00,029.8,028.6,000.0,038.0,031.5,21.5,0000.0,0000.92,0001.61,0000.65
2023-06-03 00:01:00,SystemResetWarning,0827.0,4.99,000.00,029.8,028.5,000.0,038.0,031.5,22.3,0000.0,0000.97,0001.79,0000.68
2023-06-03 00:02:00,SystemResetWarning,0826.9,4.99,000.00,029.8,027.0,000.0,038.0,031.3,21.6,0000.0,0001.02,0001.85,0000.71
2023-06-03 00:03:00,SystemResetWarning,0826.9,5.00,000.00,029.7,025.3,000.0,037.9,031.0,21.7,0000.0,0001.05,0001.89,0000.72
2023-06-03 00:04:00,SystemResetWarning,0826.9,5.00,000.00,029.6,025.0,000.0,037.8,030.9,22.6,0000.0,0001.13,0002.03,0000.76
2023-06-03 00:05:00,SystemResetWarning,0826.9,5.01,000.00,029.5,025.2,000.0,037.8,030.8,23.5,0000.0,0001.18,0002.09,0000.81
2023-06-03 00:06:00,SystemResetWarning,0826.9,5.01,000.00,029.4,025.6,000.0,037.8,030.8,24.2,0000.0,0001.24,0002.18,0000.85
2023-06-03 00:07:00,SystemResetWarning,0826.9,5.00,000.00,029.4,026.1,000.0,037.8,030.9,23.8,0000.0,0001.32,0002.33,0000.89
2023-06-03 00:08:00,SystemResetWarning,0826.9,5.00,000.00,029.4,026.5,000.0,037.8,030.9,24.0,0000.0,0001.37,0002.39,0000.93
2023-06-03 00:09:00,SystemResetWarning,0826.8,5.00,000.00,029.4,026.9,000.0,037.8,031.0,23.7,0000.0,0001.41,0002.53,0000.97
2023-06-03 00:10:00,SystemResetWarning,0826.8,5.00,000.00,029.4,027.2,000.0,037.8,031.1,24.4,0000.0,0001.42,0003.12,0000.99
2023-06-03 00:11:00,SystemResetWarning,0826.8,4.99,000.00,029.4,027.4,000.0,037.8,031.1,24.2,0000.0,0001.47,0003.23,0001.01
2023-06-03 00:12:00,SystemResetWarning,0826.8,5.00,000.00,029.5,027.6,000.0,037.8,031.1,23.4,0000.0,0001.52,0003.19,0001.04
2023-06-03 00:13:00,SystemResetWarning,0826.8,5.00,000.00,029.5,027.8,000.0,037.8,031.2,23.6,0000.0,0001.56,0003.27,0001.04
2023-06-03 00:14:00,SystemResetWarning,0826.8,4.99,000.00,029.5,028.0,000.0,037.8,031.2,23.7,0000.0,0001.59,0003.36,0001.06
2023-06-03 00:15:00,SystemResetWarning,0826.8,5.01,000.00,029.5,028.1,000.0,037.8,031.3,23.8,0000.0,0001.61,0003.44,0001.07
2023-06-03 00:16:00,SystemResetWarning,0826.8,5.00,000.00,029.6,028.2,000.0,037.8,031.3,23.4,0000.0,0001.63,0003.57,0001.07
2023-06-03 00:17:00,SystemResetWarning,0826.8,5.01,000.00,029.6,028.3,000.0,037.9,031.3,23.2,0000.0,0001.67,0003.82,0001.07
2023-06-03 00:18:00,SystemResetWarning,0826.8,5.00,000.00,029.6,028.4,000.0,037.9,031.4,23.6,0000.0,0001.66,0003.82,0001.06
2023-06-03 00:19:00,SystemResetWarning,0826.8,5.00,000.00,029.7,028.5,000.0,037.9,031.4,23.0,0000.0,0001.67,0003.90,0001.04
2023-06-03 00:20:00,SystemResetWarning,0826.8,5.01,000.00,029.7,028.6,000.0,037.9,031.5,22.5,0000.0,0001.69,0003.90,0001.03
2023-06-03 00:21:00,SystemResetWarning,0826.8,4.99,000.00,029.7,028.2,000.0,037.9,031.4,22.5,0000.0,0001.68,0003.30,0001.03
2023-06-03 00:22:00,SystemResetWarning,0826.8,4.99,000.00,029.7,026.6,000.0,037.9,031.2,23.1,0000.0,0001.62,0003.13,0001.03
2023-06-03 00:23:00,SystemResetWarning,0826.8,5.01,000.00,029.6,025.9,000.0,037.8,031.1,22.8,0000.0,0001.59,0003.11,0001.02
2023-06-03 00:24:00,SystemResetWarning,0826.8,5.01,000.00,029.6,026.1,000.0,037.8,031.0,22.8,0000.0,0001.61,0003.22,0001.03
2023-06-03 00:25:00,SystemResetWarning,0826.8,5.00,000.00,029.5,026.3,000.0,037.8,031.0,22.5,0000.0,0001.63,0003.85,0001.04
2023-06-03 00:26:00,SystemResetWarning,0826.9,4.99,000.00,029.5,026.7,000.0,037.8,031.1,23.1,0000.0,0001.58,0003.74,0001.03
2023-06-03 00:27:00,SystemResetWarning,0826.9,5.01,000.00,029.5,027.0,000.0,037.8,031.1,22.9,0000.0,0001.55,0003.68,0001.02
2023-06-03 00:28:00,SystemResetWarning,0826.9,5.00,000.00,029.5,027.3,000.0,037.8,031.2,22.8,0000.0,0001.48,0003.44,0001.01
2023-06-03 00:29:00,SystemResetWarning,0826.9,5.01,000.00,029.5,027.6,000.0,037.8,031.2,22.8,0000.0,0001.45,0004.33,0001.00
2023-06-03 00:30:00,SystemResetWarning,0827.0,5.00,000.00,029.6,027.8,000.0,037.9,031.3,23.2,0000.0,0001.39,0004.83,0001.00
2023-06-03 00:31:00,SystemResetWarning,0827.0,5.00,000.00,029.6,028.0,000.0,037.9,031.3,23.6,0000.0,0001.38,0005.01,0001.00
2023-06-03 00:32:00,SystemResetWarning,0826.9,5.01,000.00,029.6,028.1,000.0,037.9,031.3,23.3,0000.0,0001.43,0005.17,0000.98
2023-06-03 00:33:00,SystemResetWarning,0826.9,4.99,000.00,029.6,028.3,000.0,037.9,031.4,22.4,0000.0,0001.46,0006.51,0000.96
2023-06-03 00:34:00,SystemResetWarning,0827.0,4.99,000.00,029.7,028.4,000.0,037.9,031.4,22.4,0000.0,0001.44,0007.00,0000.95
2023-06-03 00:35:00,SystemResetWarning,0826.9,5.00,000.00,029.7,028.5,000.0,037.9,031.5,22.3,0000.0,0001.40,0006.88,0000.92
2023-06-03 00:36:00,SystemResetWarning,0826.9,5.01,000.00,029.7,028.6,000.0,038.0,031.5,22.0,0000.0,0001.33,0006.16,0000.90
2023-06-03 00:37:00,SystemResetWarning,0826.9,4.99,000.00,029.8,028.2,000.0,038.0,031.5,22.0,0000.0,0001.34,0006.46,0000.89
2023-06-03 00:38:00,SystemResetWarning,0827.0,5.00,000.00,029.7,026.5,000.0,037.9,031.2,22.2,0000.0,0001.32,0006.84,0000.89
2023-06-03 00:39:00,SystemResetWarning,0826.9,5.01,000.00,029.7,025.2,000.0,037.8,030.9,21.5,0000.0,0001.30,0006.79,0000.88
2023-06-03 00:40:00,SystemResetWarning,0826.9,5.01,000.00,029.6,025.1,000.0,037.8,030.9,21.8,0000.0,0001.29,0005.87,0000.86
2023-06-03 00:41:00,SystemResetWarning,0826.9,5.01,000.00,029.5,025.4,000.0,037.8,030.8,22.6,0000.0,0001.29,0005.23,0000.84
2023-06-03 00:42:00,SystemResetWarning,0827.0,4.99,000.00,029.4,025.8,000.0,037.8,030.9,22.8,0000.0,0001.27,0004.85,0000.83
2023-06-03 00:43:00,SystemResetWarning,0827.0,5.00,000.00,029.4,026.2,000.0,037.8,030.9,22.5,0000.0,0001.22,0004.77,0000.83
2023-06-03 00:44:00,SystemResetWarning,0826.9,5.01,000.00,029.4,026.6,000.0,037.8,031.0,22.7,0000.0,0001.19,0004.03,0000.83
2023-06-03 00:45:00,SystemResetWarning,0827.0,5.00,000.00,029.4,027.0,000.0,037.8,031.0,22.2,0000.0,0001.23,0003.29,0000.83
2023-06-03 00:46:00,SystemResetWarning,0827.0,5.00,000.00,029.4,027.2,000.0,037.8,031.1,22.4,0000.0,0001.23,0003.45,0000.83
2023-06-03 00:47:00,SystemResetWarning,0827.1,5.00,000.00,029.4,027.5,000.0,037.8,031.1,22.7,0000.0,0001.24,0003.51,0000.82
2023-06-03 00:48:00,SystemResetWarning,0827.1,4.99,000.00,029.5,027.7,000.0,037.8,031.2,22.8,0000.0,0001.24,0003.47,0000.81
2023-06-03 00:49:00,SystemResetWarning,0827.1,4.99,000.00,029.5,027.9,000.0,037.8,031.2,22.5,0000.0,0001.26,0002.81,0000.81
2023-06-03 00:50:00,SystemResetWarning,0827.1,5.00,000.00,029.5,028.1,000.0,037.8,031.3,22.3,0000.0,0001.26,0002.80,0000.80
2023-06-03 00:51:00,SystemResetWarning,0827.1,5.01,000.00,029.5,028.2,000.0,037.8,031.3,22.2,0000.0,0001.29,0002.77,0000.81
2023-06-03 00:52:00,SystemResetWarning,0827.1,5.01,000.00,029.6,028.3,000.0,037.8,031.3,22.2,0000.0,0001.33,0002.97,0000.82
2023-06-03 00:53:00,SystemResetWarning,0827.2,5.01,000.00,029.6,028.4,000.0,037.9,031.4,22.3,0000.0,0001.33,0003.83,0000.81
2023-06-03 00:54:00,SystemResetWarning,0827.1,4.99,000.00,029.7,028.5,000.0,037.9,031.4,22.5,0000.0,0001.36,0004.33,0000.82
2023-06-03 00:55:00,SystemResetWarning,0827.1,4.99,000.00,029.7,028.6,000.0,037.9,031.5,22.4,0000.0,0001.34,0004.16,0000.81
2023-06-03 00:56:00,SystemResetWarning,0827.2,5.00,000.00,029.7,028.6,000.0,037.9,031.5,22.6,0000.0,0001.33,0004.40,0000.81
2023-06-03 00:57:00,SystemResetWarning,0827.2,5.00,000.00,029.8,028.7,000.0,038.0,031.5,22.6,0000.0,0001.39,0005.42,0000.82
2023-06-03 00:58:00,SystemResetWarning,0827.2,5.00,000.00,029.8,028.0,000.0,038.0,031.5,23.0,0000.0,0001.43,0006.06,0000.83
2023-06-03 00:59:00,SystemResetWarning,0827.2,5.00,000.00,029.7,026.4,000.0,037.9,031.2,22.6,0000.0,0001.42,0005.99,0000.84
